Orbital Elements at Epoch 2459000.5 (2020-May-31.0) TDB
Reference: JPL 21 (heliocentric ecliptic J2000)
Element | Value | Uncertainty (1-sigma) | Units |
e | .255474658213498 | 5.7374e-08 | |
a | 2.277486682943977 | 7.9389e-09 | au |
q | 1.695646551033072 | 1.2861e-07 | au |
i | 3.451489826550481 | 5.1018e-06 | deg |
node | 208.18686838229 | 7.5219e-05 | deg |
peri | 142.0033219017735 | 7.6194e-05 | deg |
M | 334.7265015742551 | 7.8156e-06 | deg |
tp | 2459088.634319931662 (2020-Aug-27.13431993) | 2.7167e-05 | TDB |
period | 1255.400207795461 3.44 | 6.5641e-06 1.797e-08 | d yr |
n | .286761144186981 | 1.4994e-09 | deg/d |
Q | 2.859326814854883 | 9.9671e-09 | au |
|
| | Orbit Determination Parameters
Additional Information
|